Location: Aufkirchen
(47.9603°N, 11.3653°E)
Time: 17:25:53
(UTC+01:00)

Transit 2A - Pass Details

Date: 28 November 2020
Orbit: 599 x 960 km, 66.7° (Epoch: 26 January)

Event Time Altitude Azimuth Distance (km) Brightness Sun altitude
Rises 00:32:23 0° 326° (NW) 3,408 - -62.7°
Reaches altitude 10° 00:35:35 10° 342° (NNW) 2,400 - -62.6°
Maximum altitude 00:39:40 21° 31° (NNE) 1,677 - -62.4°
Drops below altitude 10° 00:43:28 10° 80° (E) 2,209 - -62.1°
Sets 00:46:15 0° 96° (E) 3,060 - -62.0°
